Regional Weather Roundup
Issued by NWS

Home | Current Version | Previous Version | Graphics & Text | Print | Product List | Glossary On
Versions: 1 2 3 4 5 6 7 8 9 10 11 12 13 14 15 16 17 18 19 20 21 22 23 24 25 26 27 28 29 30 31 32 33 34 35 36 37 38 39 40 41 42 43 44 45 46 47 48 49 50
000
ASUS45 KCYS 311210
RWRWY

WYOMING REGIONAL WEATHER ROUNDUP
NATIONAL WEATHER SERVICE CHEYENNE WY
500 AM MST SAT JAN 31 2015

NOTE:  "FAIR" INDICATES FEW OR NO CLOUDS BELOW 12,000 FEET
WITH NO SIGNIFICANT WEATHER AND/OR OBSTRUCTIONS TO VISIBILITY.

WYZ001-311300-
YELLOWSTONE NATIONAL PARK

CITY           SKY/WX    TMP DP  RH WIND       PRES   REMARKS
LK YELLOWSTONE   N/A     -7 -13  75 CALM      30.05S
6HR MIN TEMP:  -8; 6HR MAX TEMP:   5;

W YELLOWSTONE  NOT AVBL

$$
WYZ002>013-054>058-071-098>099-311300-
NORTHERN WYOMING

CITY           SKY/WX    TMP DP  RH WIND       PRES   REMARKS
JACKSON        FAIR       3   3 100 N12       30.05S WCI -13
CODY           FAIR      21  19  93 CALM      29.95S
GREYBULL       FOG       26  24  92 NW8       29.99R VSB 1/2 WCI  18
6HR MIN TEMP:  24; 6HR MAX TEMP:  26;

WORLAND        FOG       18  15  88 NW3       29.95F VSB 1/4
6HR MIN TEMP:  17; 6HR MAX TEMP:  23;

SHERIDAN       FAIR      27  21  78 W8        29.94R WCI  19
6HR MIN TEMP:  23; 6HR MAX TEMP:  28;

BUFFALO          N/A     32  15  49 MISG      29.90R
6HR MIN TEMP:  30; 6HR MAX TEMP:  37;

GILLETTE       FAIR      32  22  66 S10       29.92F WCI  24
6HR MIN TEMP:  24; 6HR MAX TEMP:  33;

HULETT           N/A    N/A N/A N/A MISG        N/A
NEWCASTLE      FAIR      27  23  86 N3        29.97F

$$
WYZ014>020-022>026-101>103-311300-
CENTRAL WYOMING

CITY           SKY/WX    TMP DP  RH WIND       PRES   REMARKS
BIG PINEY      FAIR      23  20  88 NE9       29.98R WCI  13
6HR MIN TEMP:  22; 6HR MAX TEMP:  28;

PINEDALE       FAIR      18  12  79 N3        29.98F
DUBOIS         FAIR      21   9  58 NW15      29.95S WCI   8
LANDER         CLOUDY    27  21  78 NW6       29.93F WCI  20
6HR MIN TEMP:  27; 6HR MAX TEMP:  33;

RIVERTON       MOCLDY    30  26  85 CALM      29.95F
6HR MIN TEMP:  28; 6HR MAX TEMP:  32;

CASPER         FAIR      25  22  88 W7        29.94F WCI  17
6HR MIN TEMP:  23; 6HR MAX TEMP:  30;

DOUGLAS        FAIR      27  24  89 CALM      29.95F
6HR MIN TEMP:  25; 6HR MAX TEMP:  29;


$$
WYZ021-027>030-104>119-311300-
SOUTHERN WYOMING

CITY           SKY/WX    TMP DP  RH WIND       PRES   REMARKS
EVANSTON       CLOUDY    30  26  85 N3        29.98S
6HR MIN TEMP:  29; 6HR MAX TEMP:  31; 6HR PCP: TRACE;

KEMMERER       CLOUDY    28  27  93 N3        29.98F
FORT BRIDGER   LGT SNOW  29  29 100 CALM      30.01F
ROCK SPRINGS   CLOUDY    27  26  96 SW6       29.95F WCI  20
6HR MIN TEMP:  27; 6HR MAX TEMP:  29; 6HR PCP: TRACE;

DIXON          LGT SNOW  32  31  98 SW5       29.92F WCI  27
RAWLINS        CLOUDY    31  22  69 NE10      29.92F WCI  22
6HR MIN TEMP:  30; 6HR MAX TEMP:  32;

SARATOGA       LGT SNOW  28  28 100 NW7       29.91S WCI  21
LARAMIE        CLOUDY    27  24  89 W5        29.89F WCI  22
6HR MIN TEMP:  27; 6HR MAX TEMP:  29;

CHEYENNE       MOCLDY    31  23  72 N7        29.91F WCI  24
6HR MIN TEMP:  31; 6HR MAX TEMP:  32;

TORRINGTON     MOCLDY    32  25  75 N7        29.95F WCI  26
6HR MIN TEMP:  31; 6HR MAX TEMP:  35;

PINE BLUFFS    CLOUDY    32  27  80 N5        29.92F WCI  27

$$



USA.gov is the U.S. government's official web portal to all federal, state and local government web resources and services.